Year,Month,Day,Hour,Minute,Value (Times are PST for temperature in C)
2015,08,13,00,00,19.30
2015,08,13,00,01,19.30
2015,08,13,00,02,19.30
2015,08,13,00,03,19.20
2015,08,13,00,04,19.20
2015,08,13,00,05,19.20
2015,08,13,00,06,19.20
2015,08,13,00,07,19.20
2015,08,13,00,08,19.20
2015,08,13,00,09,19.20
2015,08,13,00,10,19.20
2015,08,13,00,11,19.10
2015,08,13,00,12,19.10
2015,08,13,00,13,19.10
2015,08,13,00,14,19.10
2015,08,13,00,15,19.10
2015,08,13,00,16,19.10
2015,08,13,00,17,19.10
2015,08,13,00,18,19.10
2015,08,13,00,19,19.10
2015,08,13,00,20,19.10
2015,08,13,00,21,19.10
2015,08,13,00,22,19.00
2015,08,13,00,23,19.00
2015,08,13,00,24,19.00
2015,08,13,00,25,19.00
2015,08,13,00,26,19.00
2015,08,13,00,27,18.90
2015,08,13,00,28,18.90
2015,08,13,00,29,18.90
2015,08,13,00,30,18.90
2015,08,13,00,31,19.00
2015,08,13,00,32,19.00
2015,08,13,00,33,19.00
2015,08,13,00,34,19.00
2015,08,13,00,35,19.00
2015,08,13,00,36,19.10
2015,08,13,00,37,19.10
2015,08,13,00,38,19.10
2015,08,13,00,39,19.10
2015,08,13,00,40,19.10
2015,08,13,00,41,19.10
2015,08,13,00,42,19.10
2015,08,13,00,43,19.00
2015,08,13,00,44,19.00
2015,08,13,00,45,19.00
2015,08,13,00,46,19.00
2015,08,13,00,47,18.90
2015,08,13,00,48,18.90
2015,08,13,00,49,18.90
2015,08,13,00,50,18.90
2015,08,13,00,51,18.80
2015,08,13,00,52,18.80
2015,08,13,00,53,18.70
2015,08,13,00,54,18.70
2015,08,13,00,55,18.60
2015,08,13,00,56,18.60
2015,08,13,00,57,18.60
2015,08,13,00,58,18.50
2015,08,13,00,59,18.40
2015,08,13,01,00,18.40
2015,08,13,01,01,18.40
2015,08,13,01,02,18.30
2015,08,13,01,03,18.30
2015,08,13,01,04,18.30
2015,08,13,01,05,18.30
2015,08,13,01,06,18.20
2015,08,13,01,07,18.20
2015,08,13,01,08,18.10
2015,08,13,01,09,18.10
2015,08,13,01,10,18.10
2015,08,13,01,11,18.00
2015,08,13,01,12,18.00
2015,08,13,01,13,18.00
2015,08,13,01,14,17.90
2015,08,13,01,15,17.90
2015,08,13,01,16,17.90
2015,08,13,01,17,17.90
2015,08,13,01,18,17.80
2015,08,13,01,19,17.80
2015,08,13,01,20,17.80
2015,08,13,01,21,17.80
2015,08,13,01,22,17.80
2015,08,13,01,23,17.80
2015,08,13,01,24,17.80
2015,08,13,01,25,17.80
2015,08,13,01,26,17.80
2015,08,13,01,27,17.80
2015,08,13,01,28,17.80
2015,08,13,01,29,17.80
2015,08,13,01,30,17.80
2015,08,13,01,31,17.80
2015,08,13,01,32,17.80
2015,08,13,01,33,17.80
2015,08,13,01,34,17.80
2015,08,13,01,35,17.80
2015,08,13,01,36,17.90
2015,08,13,01,37,17.90
2015,08,13,01,38,17.90
2015,08,13,01,39,17.90
2015,08,13,01,40,17.90
2015,08,13,01,41,17.90
2015,08,13,01,42,17.90
2015,08,13,01,43,17.90
2015,08,13,01,44,17.90
2015,08,13,01,45,18.00
2015,08,13,01,46,18.00
2015,08,13,01,47,17.90
2015,08,13,01,48,17.90
2015,08,13,01,49,17.90
2015,08,13,01,50,17.90
2015,08,13,01,51,17.80
2015,08,13,01,52,17.80
2015,08,13,01,53,17.70
2015,08,13,01,54,17.70
2015,08,13,01,55,17.60
2015,08,13,01,56,17.60
2015,08,13,01,57,17.60
2015,08,13,01,58,17.60
2015,08,13,01,59,17.60
2015,08,13,02,00,17.60
2015,08,13,02,01,17.60
2015,08,13,02,02,17.60
2015,08,13,02,03,17.60
2015,08,13,02,04,17.60
2015,08,13,02,05,17.60
2015,08,13,02,06,17.60
2015,08,13,02,07,17.50
2015,08,13,02,08,17.50
2015,08,13,02,09,17.50
2015,08,13,02,10,17.50
2015,08,13,02,11,17.50
2015,08,13,02,12,17.60
2015,08,13,02,13,17.50
2015,08,13,02,14,17.50
2015,08,13,02,15,17.50
2015,08,13,02,16,17.50
2015,08,13,02,17,17.50
2015,08,13,02,18,17.60
2015,08,13,02,19,17.60
2015,08,13,02,20,17.60
2015,08,13,02,21,17.60
2015,08,13,02,22,17.60
2015,08,13,02,23,17.60
2015,08,13,02,24,17.60
2015,08,13,02,25,17.60
2015,08,13,02,26,17.60
2015,08,13,02,27,17.60
2015,08,13,02,28,17.60
2015,08,13,02,29,17.60
2015,08,13,02,30,17.60
2015,08,13,02,31,17.60
2015,08,13,02,32,17.60
2015,08,13,02,33,17.60
2015,08,13,02,34,17.60
2015,08,13,02,35,17.60
2015,08,13,02,36,17.60
2015,08,13,02,37,17.60
2015,08,13,02,38,17.60
2015,08,13,02,39,17.50
2015,08,13,02,40,17.50
2015,08,13,02,41,17.50
2015,08,13,02,42,17.50
2015,08,13,02,43,17.50
2015,08,13,02,44,17.50
2015,08,13,02,45,17.40
2015,08,13,02,46,17.40
2015,08,13,02,47,17.40
2015,08,13,02,48,17.40
2015,08,13,02,49,17.40
2015,08,13,02,50,17.30
2015,08,13,02,51,17.30
2015,08,13,02,52,17.30
2015,08,13,02,53,17.30
2015,08,13,02,54,17.20
2015,08,13,02,55,17.20
2015,08,13,02,56,17.20
2015,08,13,02,57,17.10
2015,08,13,02,58,17.10
2015,08,13,02,59,17.00
2015,08,13,03,00,17.00
2015,08,13,03,01,16.90
2015,08,13,03,02,16.90
2015,08,13,03,03,16.80
2015,08,13,03,04,16.80
2015,08,13,03,05,16.80
2015,08,13,03,06,16.70
2015,08,13,03,07,16.70
2015,08,13,03,08,16.60
2015,08,13,03,09,16.60
2015,08,13,03,10,16.50
2015,08,13,03,11,16.50
2015,08,13,03,12,16.50
2015,08,13,03,13,16.50
2015,08,13,03,14,16.50
2015,08,13,03,15,16.50
2015,08,13,03,16,16.50
2015,08,13,03,17,16.50
2015,08,13,03,18,16.60
2015,08,13,03,19,16.60
2015,08,13,03,20,16.70
2015,08,13,03,21,16.70
2015,08,13,03,22,16.80
2015,08,13,03,23,16.80
2015,08,13,03,24,16.80
2015,08,13,03,25,16.90
2015,08,13,03,26,16.90
2015,08,13,03,27,16.90
2015,08,13,03,28,17.00
2015,08,13,03,29,17.00
2015,08,13,03,30,17.00
2015,08,13,03,31,17.10
2015,08,13,03,32,17.10
2015,08,13,03,33,17.10
2015,08,13,03,34,17.10
2015,08,13,03,35,17.10
2015,08,13,03,36,17.10
2015,08,13,03,37,17.10
2015,08,13,03,38,17.10
2015,08,13,03,39,17.10
2015,08,13,03,40,17.10
2015,08,13,03,41,17.10
2015,08,13,03,42,17.10
2015,08,13,03,43,17.10
2015,08,13,03,44,17.10
2015,08,13,03,45,17.10
2015,08,13,03,46,17.00
2015,08,13,03,47,17.00
2015,08,13,03,48,16.90
2015,08,13,03,49,16.90
2015,08,13,03,50,16.90
2015,08,13,03,51,16.80
2015,08,13,03,52,16.80
2015,08,13,03,53,16.80
2015,08,13,03,54,16.70
2015,08,13,03,55,16.70
2015,08,13,03,56,16.60
2015,08,13,03,57,16.60
2015,08,13,03,58,16.60
2015,08,13,03,59,16.50
2015,08,13,04,00,16.50
2015,08,13,04,01,16.40
2015,08,13,04,02,16.40
2015,08,13,04,03,16.30
2015,08,13,04,04,16.30
2015,08,13,04,05,16.30
2015,08,13,04,06,16.30
2015,08,13,04,07,16.30
2015,08,13,04,08,16.30
2015,08,13,04,09,16.30
2015,08,13,04,10,16.30
2015,08,13,04,11,16.30
2015,08,13,04,12,16.30
2015,08,13,04,13,16.30
2015,08,13,04,14,16.30
2015,08,13,04,15,16.30
2015,08,13,04,16,16.30
2015,08,13,04,17,16.30
2015,08,13,04,18,16.30
2015,08,13,04,19,16.30
2015,08,13,04,20,16.30
2015,08,13,04,21,16.30
2015,08,13,04,22,16.30
2015,08,13,04,23,16.30
2015,08,13,04,24,16.30
2015,08,13,04,25,16.40
2015,08,13,04,26,16.40
2015,08,13,04,27,16.40
2015,08,13,04,28,16.40
2015,08,13,04,29,16.40
2015,08,13,04,30,16.40
2015,08,13,04,31,16.40
2015,08,13,04,32,16.40
2015,08,13,04,33,16.40
2015,08,13,04,34,16.40
2015,08,13,04,35,16.50
2015,08,13,04,36,16.50
2015,08,13,04,37,16.60
2015,08,13,04,38,16.60
2015,08,13,04,39,16.60
2015,08,13,04,40,16.60
2015,08,13,04,41,16.70
2015,08,13,04,42,16.70
2015,08,13,04,43,16.70
2015,08,13,04,44,16.70
2015,08,13,04,45,16.70
2015,08,13,04,46,16.80
2015,08,13,04,47,16.80
2015,08,13,04,48,16.80
2015,08,13,04,49,16.80
2015,08,13,04,50,16.80
2015,08,13,04,51,16.80
2015,08,13,04,52,16.80
2015,08,13,04,53,16.80
2015,08,13,04,54,16.70
2015,08,13,04,55,16.70
2015,08,13,04,56,16.70
2015,08,13,04,57,16.70
2015,08,13,04,58,16.60
2015,08,13,04,59,16.60
2015,08,13,05,00,16.60
2015,08,13,05,01,16.60
2015,08,13,05,02,16.60
2015,08,13,05,03,16.60
2015,08,13,05,04,16.60
2015,08,13,05,05,16.60
2015,08,13,05,06,16.60
2015,08,13,05,07,16.60
2015,08,13,05,08,16.60
2015,08,13,05,09,16.60
2015,08,13,05,10,16.60
2015,08,13,05,11,16.60
2015,08,13,05,12,16.60
2015,08,13,05,13,16.60
2015,08,13,05,14,16.60
2015,08,13,05,15,16.60
2015,08,13,05,16,16.60
2015,08,13,05,17,16.60
2015,08,13,05,18,16.60
2015,08,13,05,19,16.60
2015,08,13,05,20,16.60
2015,08,13,05,21,16.60
2015,08,13,05,22,16.60
2015,08,13,05,23,16.60
2015,08,13,05,24,16.60
2015,08,13,05,25,16.50
2015,08,13,05,26,16.50
2015,08,13,05,27,16.50
2015,08,13,05,28,16.50
2015,08,13,05,29,16.40
2015,08,13,05,30,16.40
2015,08,13,05,31,16.40
2015,08,13,05,32,16.40
2015,08,13,05,33,16.40
2015,08,13,05,34,16.40
2015,08,13,05,35,16.40
2015,08,13,05,36,16.30
2015,08,13,05,37,16.30
2015,08,13,05,38,16.30
2015,08,13,05,39,16.30
2015,08,13,05,40,16.30
2015,08,13,05,41,16.30
2015,08,13,05,42,16.30
2015,08,13,05,43,16.30
2015,08,13,05,44,16.20
2015,08,13,05,45,16.20
2015,08,13,05,46,16.20
2015,08,13,05,47,16.20
2015,08,13,05,48,16.20
2015,08,13,05,49,16.20
2015,08,13,05,50,16.20
2015,08,13,05,51,16.20
2015,08,13,05,52,16.20
2015,08,13,05,53,16.20
2015,08,13,05,54,16.20
2015,08,13,05,55,16.20
2015,08,13,05,56,16.20
2015,08,13,05,57,16.20
2015,08,13,05,58,16.20
2015,08,13,05,59,16.20
2015,08,13,06,00,16.20
2015,08,13,06,01,16.20
2015,08,13,06,02,16.20
2015,08,13,06,03,16.20
2015,08,13,06,04,16.20
2015,08,13,06,05,16.20
2015,08,13,06,06,16.20
2015,08,13,06,07,16.20
2015,08,13,06,08,16.10
2015,08,13,06,09,16.10
2015,08,13,06,10,16.10
2015,08,13,06,11,16.10
2015,08,13,06,12,16.10
2015,08,13,06,13,16.10
2015,08,13,06,14,16.10
2015,08,13,06,15,16.10
2015,08,13,06,16,16.10
2015,08,13,06,17,16.10
2015,08,13,06,18,16.10
2015,08,13,06,19,16.10
2015,08,13,06,20,16.10
2015,08,13,06,21,16.10
2015,08,13,06,22,16.20
2015,08,13,06,23,16.20
2015,08,13,06,24,16.20
2015,08,13,06,25,16.20
2015,08,13,06,26,16.20
2015,08,13,06,27,16.20
2015,08,13,06,28,16.20
2015,08,13,06,29,16.10
2015,08,13,06,30,16.10
2015,08,13,06,31,16.10
2015,08,13,06,32,16.10
2015,08,13,06,33,16.10
2015,08,13,06,34,16.10
2015,08,13,06,35,16.10
2015,08,13,06,36,16.00
2015,08,13,06,37,16.00
2015,08,13,06,38,16.00
2015,08,13,06,39,16.00
2015,08,13,06,40,16.00
2015,08,13,06,41,15.90
2015,08,13,06,42,15.90
2015,08,13,06,43,15.90
2015,08,13,06,44,15.90
2015,08,13,06,45,15.90
2015,08,13,06,46,15.90
2015,08,13,06,47,15.90
2015,08,13,06,48,15.90
2015,08,13,06,49,15.90
2015,08,13,06,50,15.90
2015,08,13,06,51,16.00
2015,08,13,06,52,16.00
2015,08,13,06,53,16.00
2015,08,13,06,54,16.00
2015,08,13,06,55,16.00
2015,08,13,06,56,16.00
2015,08,13,06,57,16.00
2015,08,13,06,58,16.10
2015,08,13,06,59,16.10
2015,08,13,07,00,16.10
2015,08,13,07,01,16.20
2015,08,13,07,02,16.20
2015,08,13,07,03,16.20
2015,08,13,07,04,16.20
2015,08,13,07,05,16.20
2015,08,13,07,06,16.30
2015,08,13,07,07,16.30
2015,08,13,07,08,16.30
2015,08,13,07,09,16.30
2015,08,13,07,10,16.30
2015,08,13,07,11,16.30
2015,08,13,07,12,16.30
2015,08,13,07,13,16.30
2015,08,13,07,14,16.30
2015,08,13,07,15,16.30
2015,08,13,07,16,16.30
2015,08,13,07,17,16.40
2015,08,13,07,18,16.40
2015,08,13,07,19,16.40
2015,08,13,07,20,16.40
2015,08,13,07,21,16.50
2015,08,13,07,22,16.50
2015,08,13,07,23,16.60
2015,08,13,07,24,16.60
2015,08,13,07,25,16.60
2015,08,13,07,26,16.70
2015,08,13,07,27,16.70
2015,08,13,07,28,16.70
2015,08,13,07,29,16.80
2015,08,13,07,30,16.80
2015,08,13,07,31,16.80
2015,08,13,07,32,16.80
2015,08,13,07,33,16.90
2015,08,13,07,34,16.90
2015,08,13,07,35,16.90
2015,08,13,07,36,16.90
2015,08,13,07,37,16.90
2015,08,13,07,38,17.00
2015,08,13,07,39,17.00
2015,08,13,07,40,17.10
2015,08,13,07,41,17.10
2015,08,13,07,42,17.10
2015,08,13,07,43,17.10
2015,08,13,07,44,17.20
2015,08,13,07,45,17.20
2015,08,13,07,46,17.20
2015,08,13,07,47,17.30
2015,08,13,07,48,17.30
2015,08,13,07,49,17.30
2015,08,13,07,50,17.30
2015,08,13,07,51,17.40
2015,08,13,07,52,17.40
2015,08,13,07,53,17.50
2015,08,13,07,54,17.50
2015,08,13,07,55,17.60
2015,08,13,07,56,17.60
2015,08,13,07,57,17.70
2015,08,13,07,58,17.70
2015,08,13,07,59,17.80
2015,08,13,08,00,17.80
2015,08,13,08,01,17.90
2015,08,13,08,02,18.00
2015,08,13,08,03,18.00
2015,08,13,08,04,18.10
2015,08,13,08,05,18.20
2015,08,13,08,06,18.30
2015,08,13,08,07,18.40
2015,08,13,08,08,18.40
2015,08,13,08,09,18.50
2015,08,13,08,10,18.60
2015,08,13,08,11,18.60
2015,08,13,08,12,18.70
2015,08,13,08,13,18.70
2015,08,13,08,14,18.80
2015,08,13,08,15,18.80
2015,08,13,08,16,18.70
2015,08,13,08,17,18.60
2015,08,13,08,18,18.50
2015,08,13,08,19,18.50
2015,08,13,08,20,18.40
2015,08,13,08,21,18.40
2015,08,13,08,22,18.40
2015,08,13,08,23,18.30
2015,08,13,08,24,18.30
2015,08,13,08,25,18.40
2015,08,13,08,26,18.40
2015,08,13,08,27,18.40
2015,08,13,08,28,18.40
2015,08,13,08,29,18.40
2015,08,13,08,30,18.50
2015,08,13,08,31,18.50
2015,08,13,08,32,18.60
2015,08,13,08,33,18.60
2015,08,13,08,34,18.60
2015,08,13,08,35,18.70
2015,08,13,08,36,18.80
2015,08,13,08,37,18.80
2015,08,13,08,38,18.90
2015,08,13,08,39,18.90
2015,08,13,08,40,19.00
2015,08,13,08,41,19.10
2015,08,13,08,42,19.10
2015,08,13,08,43,19.20
2015,08,13,08,44,19.30
2015,08,13,08,45,19.50
2015,08,13,08,46,19.60
2015,08,13,08,47,19.70
2015,08,13,08,48,19.80
2015,08,13,08,49,19.90
2015,08,13,08,50,19.80
2015,08,13,08,51,19.80
2015,08,13,08,52,19.70
2015,08,13,08,53,19.70
2015,08,13,08,54,19.70
2015,08,13,08,55,19.70
2015,08,13,08,56,19.60
2015,08,13,08,57,19.60
2015,08,13,08,58,19.60
2015,08,13,08,59,19.70
2015,08,13,09,00,19.70
2015,08,13,09,01,19.80
2015,08,13,09,02,19.80
2015,08,13,09,03,19.90
2015,08,13,09,04,20.00
2015,08,13,09,05,20.10
2015,08,13,09,06,20.20
2015,08,13,09,07,20.20
2015,08,13,09,08,20.30
2015,08,13,09,09,20.40
2015,08,13,09,10,20.50
2015,08,13,09,11,20.60
2015,08,13,09,12,20.70
2015,08,13,09,13,20.70
2015,08,13,09,14,20.70
2015,08,13,09,15,20.70
2015,08,13,09,16,20.60
2015,08,13,09,17,20.60
2015,08,13,09,18,20.60
2015,08,13,09,19,20.70
2015,08,13,09,20,20.70
2015,08,13,09,21,20.70
2015,08,13,09,22,20.70
2015,08,13,09,23,20.80
2015,08,13,09,24,20.80
2015,08,13,09,25,20.80
2015,08,13,09,26,20.80
2015,08,13,09,27,20.80
2015,08,13,09,28,20.90
2015,08,13,09,29,20.90
2015,08,13,09,30,21.00
2015,08,13,09,31,21.00
2015,08,13,09,32,21.10
2015,08,13,09,33,21.20
2015,08,13,09,34,21.20
2015,08,13,09,35,21.30
2015,08,13,09,36,21.30
2015,08,13,09,37,21.30
2015,08,13,09,38,21.30
2015,08,13,09,39,21.30
2015,08,13,09,40,21.40
2015,08,13,09,41,21.40
2015,08,13,09,42,21.50
2015,08,13,09,43,21.50
2015,08,13,09,44,21.50
2015,08,13,09,45,21.40
2015,08,13,09,46,21.40
2015,08,13,09,47,21.50
2015,08,13,09,48,21.50
2015,08,13,09,49,21.60
2015,08,13,09,50,21.60
2015,08,13,09,51,21.60
2015,08,13,09,52,21.60
2015,08,13,09,53,21.60
2015,08,13,09,54,21.60
2015,08,13,09,55,21.60
2015,08,13,09,56,21.60
2015,08,13,09,57,21.60
2015,08,13,09,58,21.60
2015,08,13,09,59,21.60
2015,08,13,10,00,21.70
2015,08,13,10,01,21.70
2015,08,13,10,02,21.70
2015,08,13,10,03,21.80
2015,08,13,10,04,21.80
2015,08,13,10,05,21.80
2015,08,13,10,06,21.70
2015,08,13,10,07,21.60
2015,08,13,10,08,21.60
2015,08,13,10,09,21.60
2015,08,13,10,10,21.60
2015,08,13,10,11,21.60
2015,08,13,10,12,21.60
2015,08,13,10,13,21.50
2015,08,13,10,14,21.50
2015,08,13,10,15,21.50
2015,08,13,10,16,21.50
2015,08,13,10,17,21.60
2015,08,13,10,18,21.60
2015,08,13,10,19,21.60
2015,08,13,10,20,21.60
2015,08,13,10,21,21.60
2015,08,13,10,22,21.70
2015,08,13,10,23,21.80
2015,08,13,10,24,21.90
2015,08,13,10,25,21.90
2015,08,13,10,26,22.00
2015,08,13,10,27,22.00
2015,08,13,10,28,22.10
2015,08,13,10,29,22.20
2015,08,13,10,30,22.30
2015,08,13,10,31,22.30
2015,08,13,10,32,22.40
2015,08,13,10,33,22.50
2015,08,13,10,34,22.60
2015,08,13,10,35,22.60
2015,08,13,10,36,22.60
2015,08,13,10,37,22.60
2015,08,13,10,38,22.60
2015,08,13,10,39,22.60
2015,08,13,10,40,22.60
2015,08,13,10,41,22.70
2015,08,13,10,42,22.70
2015,08,13,10,43,22.70
2015,08,13,10,44,22.80
2015,08,13,10,45,22.80
2015,08,13,10,46,22.80
2015,08,13,10,47,22.80
2015,08,13,10,48,22.80
2015,08,13,10,49,22.80
2015,08,13,10,50,22.80
2015,08,13,10,51,22.80
2015,08,13,10,52,22.80
2015,08,13,10,53,22.80
2015,08,13,10,54,22.70
2015,08,13,10,55,22.70
2015,08,13,10,56,22.70
2015,08,13,10,57,22.70
2015,08,13,10,58,22.70
2015,08,13,10,59,22.80
2015,08,13,11,00,22.80
2015,08,13,11,01,22.80
2015,08,13,11,02,22.80
2015,08,13,11,03,22.80
2015,08,13,11,04,22.90
2015,08,13,11,05,22.90
2015,08,13,11,06,22.90
2015,08,13,11,07,22.90
2015,08,13,11,08,23.00
2015,08,13,11,09,23.00
2015,08,13,11,10,23.00
2015,08,13,11,11,23.00
2015,08,13,11,12,23.00
2015,08,13,11,13,23.10
2015,08,13,11,14,23.00
2015,08,13,11,15,23.00
2015,08,13,11,16,23.00
2015,08,13,11,17,23.10
2015,08,13,11,18,23.20
2015,08,13,11,19,23.30
2015,08,13,11,20,23.30
2015,08,13,11,21,23.40
2015,08,13,11,22,23.50
2015,08,13,11,23,23.60
2015,08,13,11,24,23.70
2015,08,13,11,25,23.70
2015,08,13,11,26,23.60
2015,08,13,11,27,23.60
2015,08,13,11,28,23.50
2015,08,13,11,29,23.50
2015,08,13,11,30,23.40
2015,08,13,11,31,23.30
2015,08,13,11,32,23.30
2015,08,13,11,33,23.30
2015,08,13,11,34,23.40
2015,08,13,11,35,23.50
2015,08,13,11,36,23.60
2015,08,13,11,37,23.60
2015,08,13,11,38,23.70
2015,08,13,11,39,23.70
2015,08,13,11,40,23.70
2015,08,13,11,41,23.60
2015,08,13,11,42,23.60
2015,08,13,11,43,23.60
2015,08,13,11,44,23.70
2015,08,13,11,45,23.70
2015,08,13,11,46,23.70
2015,08,13,11,47,23.70
2015,08,13,11,48,23.70
2015,08,13,11,49,23.70
2015,08,13,11,50,23.80
2015,08,13,11,51,23.90
2015,08,13,11,52,24.00
2015,08,13,11,53,24.00
2015,08,13,11,54,24.10
2015,08,13,11,55,24.20
2015,08,13,11,56,24.30
2015,08,13,11,57,24.40
2015,08,13,11,58,24.40
2015,08,13,11,59,24.40
2015,08,13,12,00,24.50
2015,08,13,12,01,24.60
2015,08,13,12,02,24.70
2015,08,13,12,03,24.70
2015,08,13,12,04,24.70
2015,08,13,12,05,24.70
2015,08,13,12,06,24.70
2015,08,13,12,07,24.80
2015,08,13,12,08,24.80
2015,08,13,12,09,24.80
2015,08,13,12,10,24.90
2015,08,13,12,11,24.90
2015,08,13,12,12,24.90
2015,08,13,12,13,24.90
2015,08,13,12,14,24.90
2015,08,13,12,15,24.90
2015,08,13,12,16,24.90
2015,08,13,12,17,25.00
2015,08,13,12,18,25.00
2015,08,13,12,19,25.00
2015,08,13,12,20,25.10
2015,08,13,12,21,25.10
2015,08,13,12,22,25.10
2015,08,13,12,23,25.00
2015,08,13,12,24,24.80
2015,08,13,12,25,24.80
2015,08,13,12,26,24.80
2015,08,13,12,27,24.90
2015,08,13,12,28,24.90
2015,08,13,12,29,24.90
2015,08,13,12,30,25.00
2015,08,13,12,31,25.00
2015,08,13,12,32,25.10
2015,08,13,12,33,25.10
2015,08,13,12,34,25.20
2015,08,13,12,35,25.20
2015,08,13,12,36,25.30
2015,08,13,12,37,25.30
2015,08,13,12,38,25.40
2015,08,13,12,39,25.40
2015,08,13,12,40,25.40
2015,08,13,12,41,25.40
2015,08,13,12,42,25.40
2015,08,13,12,43,25.40
2015,08,13,12,44,25.30
2015,08,13,12,45,25.30
2015,08,13,12,46,25.30
2015,08,13,12,47,25.40
2015,08,13,12,48,25.50
2015,08,13,12,49,25.60
2015,08,13,12,50,25.60
2015,08,13,12,51,25.60
2015,08,13,12,52,25.60
2015,08,13,12,53,25.60
2015,08,13,12,54,25.60
2015,08,13,12,55,25.60
2015,08,13,12,56,25.60
2015,08,13,12,57,25.60
2015,08,13,12,58,25.50
2015,08,13,12,59,25.40
2015,08,13,13,00,25.50
2015,08,13,13,01,25.50
2015,08,13,13,02,25.70
2015,08,13,13,03,25.80
2015,08,13,13,04,25.90
2015,08,13,13,05,26.00
2015,08,13,13,06,26.10
2015,08,13,13,07,26.10
2015,08,13,13,08,26.00
2015,08,13,13,09,26.00
2015,08,13,13,10,25.90
2015,08,13,13,11,25.90
2015,08,13,13,12,25.80
2015,08,13,13,13,25.80
2015,08,13,13,14,25.80
2015,08,13,13,15,25.80
2015,08,13,13,16,25.60
2015,08,13,13,17,25.50
2015,08,13,13,18,25.30
2015,08,13,13,19,25.30
2015,08,13,13,20,25.30
2015,08,13,13,21,25.50
2015,08,13,13,22,25.60
2015,08,13,13,23,25.70
2015,08,13,13,24,25.70
2015,08,13,13,25,25.80
2015,08,13,13,26,25.90
2015,08,13,13,27,26.00
2015,08,13,13,28,26.00
2015,08,13,13,29,26.10
2015,08,13,13,30,26.20
2015,08,13,13,31,26.20
2015,08,13,13,32,26.20
2015,08,13,13,33,26.30
2015,08,13,13,34,26.30
2015,08,13,13,35,26.40
2015,08,13,13,36,26.50
2015,08,13,13,37,26.50
2015,08,13,13,38,26.60
2015,08,13,13,39,26.70
2015,08,13,13,40,26.70
2015,08,13,13,41,26.80
2015,08,13,13,42,26.70
2015,08,13,13,43,26.70
2015,08,13,13,44,26.70
2015,08,13,13,45,26.70
2015,08,13,13,46,26.70
2015,08,13,13,47,26.70
2015,08,13,13,48,26.70
2015,08,13,13,49,26.70
2015,08,13,13,50,26.70
2015,08,13,13,51,26.70
2015,08,13,13,52,26.70
2015,08,13,13,53,26.70
2015,08,13,13,54,26.70
2015,08,13,13,55,26.70
2015,08,13,13,56,26.60
2015,08,13,13,57,26.60
2015,08,13,13,58,26.70
2015,08,13,13,59,26.70
2015,08,13,14,00,26.70
2015,08,13,14,01,26.70
2015,08,13,14,02,26.60
2015,08,13,14,03,26.50
2015,08,13,14,04,26.50
2015,08,13,14,05,26.40
2015,08,13,14,06,26.40
2015,08,13,14,07,26.40
2015,08,13,14,08,26.40
2015,08,13,14,09,26.40
2015,08,13,14,10,26.30
2015,08,13,14,11,26.30
2015,08,13,14,12,26.30
2015,08,13,14,13,26.30
2015,08,13,14,14,26.30
2015,08,13,14,15,26.30
2015,08,13,14,16,26.40
2015,08,13,14,17,26.40
2015,08,13,14,18,26.30
2015,08,13,14,19,26.30
2015,08,13,14,20,26.40
2015,08,13,14,21,26.40
2015,08,13,14,22,26.40
2015,08,13,14,23,26.40
2015,08,13,14,24,26.50
2015,08,13,14,25,26.50
2015,08,13,14,26,26.50
2015,08,13,14,27,26.50
2015,08,13,14,28,26.60
2015,08,13,14,29,26.70
2015,08,13,14,30,26.80
2015,08,13,14,31,26.80
2015,08,13,14,32,26.80
2015,08,13,14,33,26.70
2015,08,13,14,34,26.70
2015,08,13,14,35,26.70
2015,08,13,14,36,26.80
2015,08,13,14,37,26.80
2015,08,13,14,38,26.90
2015,08,13,14,39,27.00
2015,08,13,14,40,27.00
2015,08,13,14,41,26.90
2015,08,13,14,42,26.90
2015,08,13,14,43,26.90
2015,08,13,14,44,26.90
2015,08,13,14,45,26.90
2015,08,13,14,46,26.90
2015,08,13,14,47,26.90
2015,08,13,14,48,26.90
2015,08,13,14,49,26.80
2015,08,13,14,50,26.80
2015,08,13,14,51,26.80
2015,08,13,14,52,26.70
2015,08,13,14,53,26.70
2015,08,13,14,54,26.70
2015,08,13,14,55,26.60
2015,08,13,14,56,26.60
2015,08,13,14,57,26.60
2015,08,13,14,58,26.60
2015,08,13,14,59,26.70
2015,08,13,15,00,26.80
2015,08,13,15,01,26.90
2015,08,13,15,02,27.00
2015,08,13,15,03,27.10
2015,08,13,15,04,27.10
2015,08,13,15,05,27.10
2015,08,13,15,06,27.10
2015,08,13,15,07,27.10
2015,08,13,15,08,27.20
2015,08,13,15,09,27.20
2015,08,13,15,10,27.20
2015,08,13,15,11,27.30
2015,08,13,15,12,27.30
2015,08,13,15,13,27.30
2015,08,13,15,14,27.30
2015,08,13,15,15,27.30
2015,08,13,15,16,27.40
2015,08,13,15,17,27.40
2015,08,13,15,18,27.50
2015,08,13,15,19,27.50
2015,08,13,15,20,27.60
2015,08,13,15,21,27.50
2015,08,13,15,22,27.50
2015,08,13,15,23,27.50
2015,08,13,15,24,27.60
2015,08,13,15,25,27.70
2015,08,13,15,26,27.70
2015,08,13,15,27,27.60
2015,08,13,15,28,27.60
2015,08,13,15,29,27.60
2015,08,13,15,30,27.60
2015,08,13,15,31,27.60
2015,08,13,15,32,27.60
2015,08,13,15,33,27.60
2015,08,13,15,34,27.70
2015,08,13,15,35,27.70
2015,08,13,15,36,27.70
2015,08,13,15,37,27.80
2015,08,13,15,38,27.70
2015,08,13,15,39,27.70
2015,08,13,15,40,27.70
2015,08,13,15,41,27.70
2015,08,13,15,42,27.70
2015,08,13,15,43,27.70
2015,08,13,15,44,27.70
2015,08,13,15,45,27.70
2015,08,13,15,46,27.70
2015,08,13,15,47,27.70
2015,08,13,15,48,27.70
2015,08,13,15,49,27.80
2015,08,13,15,50,27.80
2015,08,13,15,51,27.80
2015,08,13,15,52,27.80
2015,08,13,15,53,27.80
2015,08,13,15,54,27.70
2015,08,13,15,55,27.60
2015,08,13,15,56,27.60
2015,08,13,15,57,27.50
2015,08,13,15,58,27.40
2015,08,13,15,59,27.40
2015,08,13,16,00,27.40
2015,08,13,16,01,27.30
2015,08,13,16,02,27.30
2015,08,13,16,03,27.30
2015,08,13,16,04,27.30
2015,08,13,16,05,27.40
2015,08,13,16,06,27.30
2015,08,13,16,07,27.40
2015,08,13,16,08,27.40
2015,08,13,16,09,27.50
2015,08,13,16,10,27.50
2015,08,13,16,11,27.50
2015,08,13,16,12,27.50
2015,08,13,16,13,27.40
2015,08,13,16,14,27.40
2015,08,13,16,15,27.40
2015,08,13,16,16,27.40
2015,08,13,16,17,27.40
2015,08,13,16,18,27.40
2015,08,13,16,19,27.40
2015,08,13,16,20,27.40
2015,08,13,16,21,27.40
2015,08,13,16,22,27.30
2015,08,13,16,23,27.30
2015,08,13,16,24,27.30
2015,08,13,16,25,27.20
2015,08,13,16,26,27.20
2015,08,13,16,27,27.20
2015,08,13,16,28,27.30
2015,08,13,16,29,27.30
2015,08,13,16,30,27.30
2015,08,13,16,31,27.30
2015,08,13,16,32,27.20
2015,08,13,16,33,27.20
2015,08,13,16,34,27.30
2015,08,13,16,35,27.30
2015,08,13,16,36,27.30
2015,08,13,16,37,27.30
2015,08,13,16,38,27.40
2015,08,13,16,39,27.40
2015,08,13,16,40,27.40
2015,08,13,16,41,27.40
2015,08,13,16,42,27.30
2015,08,13,16,43,27.30
2015,08,13,16,44,27.30
2015,08,13,16,45,27.30
2015,08,13,16,46,27.20
2015,08,13,16,47,27.20
2015,08,13,16,48,27.10
2015,08,13,16,49,27.10
2015,08,13,16,50,27.10
2015,08,13,16,51,27.20
2015,08,13,16,52,27.20
2015,08,13,16,53,27.20
2015,08,13,16,54,27.30
2015,08,13,16,55,27.30
2015,08,13,16,56,27.30
2015,08,13,16,57,27.30
2015,08,13,16,58,27.30
2015,08,13,16,59,27.30
2015,08,13,17,00,27.30
2015,08,13,17,01,27.30
2015,08,13,17,02,27.30
2015,08,13,17,03,27.40
2015,08,13,17,04,27.40
2015,08,13,17,05,27.40
2015,08,13,17,06,27.40
2015,08,13,17,07,27.40
2015,08,13,17,08,27.40
2015,08,13,17,09,27.40
2015,08,13,17,10,27.40
2015,08,13,17,11,27.40
2015,08,13,17,12,27.30
2015,08,13,17,13,27.30
2015,08,13,17,14,27.30
2015,08,13,17,15,27.30
2015,08,13,17,16,27.30
2015,08,13,17,17,27.30
2015,08,13,17,18,27.30
2015,08,13,17,19,27.30